Wind_Speed
27 27 26 26 26 26 26 26 27 27 27 27 28 28 28 28 28 29 29 29 29 29 29 29 28 28 28 27 27 27 27 26 26 26 24 22 24 26 25 24 23 22 24 24 24 22 20 20 18 16 16 15
26 26 25 25 25 25 25 26 26 26 26 26 27 28 28 28 28 28 29 29 29 29 29 29 29 29 29 28 28 27 27 27 26 25 24 22 22 23 22 22 22 21 22 22 23 23 23 22 20 19 17 15
26 26 25 24 24 25 25 26 26 26 26 26 26 27 27 28 28 28 29 29 29 30 30 30 30 30 30 29 28 28 28 28 27 26 25 23 22 22 22 22 22 21 20 20 20 21 22 23 23 21 19 18
25 25 24 24 23 24 25 25 26 26 27 27 27 27 27 28 28 29 29 29 30 30 30 30 30 30 30 29 28 28 27 28 28 27 26 25 23 22 22 22 21 21 20 19 18 19 20 22 23 23 22 22
24 24 23 23 23 23 24 25 26 26 28 29 29 29 29 29 29 30 30 30 30 30 30 30 31 31 31 30 29 29 28 27 28 28 27 26 25 24 23 22 21 21 22 22 20 19 19 20 22 23 24 24
23 23 23 23 22 23 24 25 26 26 28 29 30 30 31 31 31 31 31 31 31 31 31 30 31 31 31 31 31 30 29 28 28 28 28 27 27 26 25 23 22 21 22 23 23 22 20 20 21 22 23 24
22 22 23 22 22 23 24 25 26 27 28 29 30 31 31 32 32 32 31 31 31 30 30 30 30 31 31 32 32 32 31 30 29 29 29 28 28 27 27 26 26 25 23 22 23 23 23 22 22 23 23 23
21 22 22 23 23 23 24 25 26 27 27 29 30 30 31 31 31 32 32 32 32 32 32 32 32 32 32 32 32 32 33 33 32 31 30 30 30 29 29 29 28 28 27 25 23 23 23 24 24 24 24 24
20 21 22 23 24 23 24 25 26 26 27 28 29 29 30 30 30 31 32 33 33 34 34 34 35 34 34 33 33 33 33 34 35 34 33 32 32 31 31 31 30 29 29 28 26 25 23 23 25 25 25 25
19 20 22 23 23 23 24 24 25 26 26 27 28 28 28 28 29 29 31 32 33 34 35 35 36 36 35 35 34 34 34 34 34 35 35 35 33 32 31 30 30 29 29 29 29 28 25 24 25 25 25 25
18 20 21 22 22 22 23 23 24 25 25 26 27 28 28 28 28 29 30 31 32 33 34 35 35 35 35 35 35 34 34 33 33 34 34 35 35 33 31 30 30 30 29 29 29 29 28 27 26 25 26 26
17 18 18 19 19 20 21 21 22 23 24 24 26 27 28 28 28 29 29 30 31 31 32 33 33 34 34 34 34 34 33 33 33 32 32 33 34 34 33 31 30 30 29 29 29 28 29 29 28 27 27 27
15 15 16 17 17 18 19 20 21 21 22 23 24 26 27 27 28 29 29 29 29 29 30 30 31 32 33 33 33 33 33 33 33 32 31 31 32 33 33 33 32 30 29 29 29 29 29 29 30 29 29 28
13 13 14 16 16 15 17 18 19 20 21 22 23 25 26 27 27 28 29 29 29 29 29 29 29 30 30 31 32 33 33 32 31 31 30 30 30 30 31 32 32 32 31 29 28 29 30 30 30 30 30 30
12 12 13 15 15 14 14 16 17 18 19 21 21 23 25 26 26 26 27 29 29 29 29 29 28 28 29 29 30 32 32 31 31 30 29 29 28 28 29 29 30 31 32 31 29 29 30 31 30 30 31 31
10 11 11 13 15 14 13 13 14 16 17 19 20 20 22 24 25 25 26 27 29 29 29 29 29 28 28 28 28 29 30 31 31 30 30 29 28 27 27 27 28 29 31 32 31 30 30 31 31 31 31 31
8 9 9 10 13 14 13 12 13 13 15 16 17 19 20 22 23 23 23 24 26 28 28 29 29 29 28 27 27 27 28 29 30 30 31 32 31 30 29 29 28 28 29 30 31 31 31 31 31 32 32 31
6 7 8 8 11 13 12 12 12 11 12 14 15 17 18 20 21 21 22 22 23 25 26 27 28 28 28 27 26 26 27 28 29 29 30 32 32 32 31 30 29 28 28 29 30 31 32 31 31 31 31 32
5 5 7 7 9 11 12 11 11 10 10 12 13 15 17 18 20 21 21 21 21 22 24 25 26 27 27 26 25 25 26 27 28 29 29 30 31 32 31 31 30 28 28 29 30 30 32 32 31 31 30 30
7 6 7 7 8 9 10 10 10 10 10 11 12 14 16 17 19 20 20 20 20 20 22 23 24 25 25 25 25 25 25 26 27 28 28 28 28 30 31 30 30 28 27 30 31 30 30 31 31 30 29 28
9 8 8 8 8 8 9 9 10 10 10 11 12 13 15 16 18 19 19 19 19 20 21 22 23 23 25 25 24 24 25 25 25 26 27 27 27 28 28 29 29 29 28 29 31 30 28 29 29 28 26 24
11 11 11 10 10 9 9 9 10 11 11 11 12 13 14 15 16 18 18 18 18 20 21 21 22 23 23 24 24 24 24 25 25 25 26 27 27 26 27 27 26 27 29 31 32 30 27 27 26 24 22 19
13 13 13 13 12 11 10 9 10 11 11 12 13 14 14 15 15 16 16 17 18 20 21 21 22 22 22 23 23 23 24 24 25 25 25 26 27 26 25 25 24 25 29 31 29 27 27 26 24 22 18 13
16 16 15 15 15 14 12 11 11 12 12 13 14 15 16 15 14 15 15 16 18 20 21 21 22 22 22 23 22 22 23 23 23 24 24 25 25 26 26 25 25 25 28 29 26 27 28 24 20 18 16 12
18 18 17 16 16 16 14 13 13 13 14 15 15 16 17 17 16 15 16 17 19 21 21 21 21 23 23 23 22 22 22 22 22 22 23 24 24 24 26 25 24 26 27 24 22 27 29 26 21 15 13 12
21 20 20 19 18 17 16 16 15 15 16 16 16 17 17 18 17 17 17 18 20 20 20 20 22 23 24 23 23 22 21 21 21 21 22 23 23 23 23 24 22 24 23 17 15 17 18 20 21 16 11 10
24 23 22 21 20 19 19 18 17 17 17 17 18 18 18 18 18 18 18 19 20 20 20 21 22 23 24 24 23 23 22 21 20 21 21 21 22 22 22 22 21 20 19 17 17 12 6 7 11 12 9 12
26 24 23 22 21 21 21 21 20 19 19 19 19 18 18 19 18 19 20 21 21 21 20 21 22 22 22 23 24 23 23 22 21 20 20 20 19 20 21 20 19 19 19 18 14 7 4 4 4 5 6 16
27 26 25 24 23 23 23 24 23 22 22 21 20 20 20 20 20 20 22 22 22 21 21 21 22 22 21 22 23 24 24 23 22 21 20 19 18 18 18 17 16 18 19 18 11 2 3 4 2 4 7 14
28 28 28 26 25 25 25 25 25 25 25 24 22 22 22 21 21 21 22 22 22 22 21 21 21 22 23 22 21 22 24 24 23 23 21 19 18 17 17 16 16 18 20 20 12 3 3 5 5 6 9 8
30 30 30 29 29 29 28 28 30 29 27 26 24 23 23 23 22 22 23 23 22 22 21 20 21 22 23 23 21 20 23 24 25 25 23 20 18 17 16 16 16 17 20 19 13 9 11 11 10 9 7 5
Wind_Direction
48 44 43 41 39 37 35 35 35 33 32 31 31 30 30 31 31 32 32 32 33 32 30 29 29 28 25 20 18 18 16 12 9 8 5 1 356 359 2 2 3 2 0 358 357 350 344 345 346 345 340 336
46 43 40 39 38 36 33 32 32 31 31 30 30 28 27 28 28 29 29 29 30 30 28 28 28 28 28 24 22 21 20 17 13 9 7 3 353 351 352 353 356 356 358 359 0 354 347 341 339 340 336 340
43 41 38 37 37 36 33 31 30 30 29 30 30 29 27 25 25 25 26 26 26 26 26 25 26 26 27 25 24 22 20 19 18 13 10 8 358 349 346 346 348 349 352 355 357 354 348 340 334 334 333 336
40 39 36 36 37 36 35 32 30 30 29 29 30 30 29 27 25 24 23 23 23 23 22 22 22 22 24 24 23 22 19 19 19 17 13 11 7 358 349 345 343 344 346 348 352 351 347 341 334 331 329 330
40 39 36 36 36 37 36 33 32 30 29 29 29 29 29 29 28 26 24 22 21 21 20 19 18 18 19 19 21 21 19 17 17 16 14 12 10 6 360 350 342 340 340 341 344 346 346 343 338 333 328 325
40 40 38 37 36 36 35 33 32 30 29 28 27 27 27 27 27 27 26 25 23 21 20 19 17 15 14 14 16 18 18 17 15 14 13 12 9 7 6 1 352 345 339 338 338 338 339 340 339 334 330 326
42 40 39 38 36 35 34 31 31 30 28 27 26 25 25 25 25 25 25 25 24 23 21 20 18 16 14 12 11 12 13 15 15 12 11 10 9 6 6 5 2 355 347 341 337 334 334 335 335 332 330 328
41 40 39 37 35 34 33 30 29 29 28 26 25 24 24 24 23 23 22 22 22 22 21 20 19 17 15 13 11 9 8 10 11 11 10 8 7 6 5 5 3 360 354 348 341 336 333 331 329 328 328 326
40 40 39 37 34 32 32 30 27 28 27 26 25 24 24 22 22 22 21 20 19 19 19 18 18 17 16 14 12 11 8 7 7 7 7 7 6 5 4 3 2 1 357 352 346 339 334 330 328 325 324 323
40 39 37 35 32 31 30 29 27 26 26 26 24 24 23 22 22 22 21 20 18 17 16 16 16 16 15 15 14 13 11 9 7 5 4 5 5 4 3 1 359 358 358 355 350 344 338 331 328 324 322 320
39 38 35 32 30 29 27 26 25 23 23 24 23 23 23 22 22 23 22 21 20 18 15 15 14 14 13 14 15 14 12 11 8 5 3 2 1 1 1 359 357 355 355 355 351 347 342 336 329 324 322 320
38 37 33 29 27 26 23 22 22 19 18 20 21 21 20 20 22 23 23 22 21 19 17 15 12 12 11 11 12 13 12 11 9 7 4 1 358 357 357 357 355 353 352 351 351 348 344 340 335 327 322 319
38 38 33 27 23 22 18 18 18 14 13 15 16 17 17 16 19 21 22 22 20 19 18 16 13 11 10 9 9 9 10 9 8 7 4 1 358 355 354 354 353 352 351 349 348 347 344 341 339 335 327 320
39 38 35 29 24 20 16 14 13 9 8 10 11 12 12 12 14 17 19 18 17 17 17 15 13 11 9 8 6 5 6 7 7 6 4 1 359 356 353 351 350 349 348 348 347 345 343 341 338 336 333 327
35 36 35 31 26 22 17 13 10 6 4 5 7 8 8 8 9 10 12 13 13 13 13 13 12 11 8 7 5 3 1 2 3 3 2 1 360 357 354 351 349 347 346 346 346 344 342 340 337 335 333 332
29 31 31 29 27 23 18 13 9 4 360 1 3 3 4 5 5 5 6 7 8 8 8 8 8 8 7 6 4 1 358 357 357 358 358 358 359 358 355 352 349 347 344 343 343 343 342 339 338 335 332 331
17 24 25 24 23 23 20 14 9 2 356 357 359 359 358 358 359 360 359 1 3 3 2 2 3 3 3 3 2 360 357 355 354 355 355 354 356 357 356 354 352 348 344 342 341 341 341 339 337 335 332 330
355 8 16 16 15 18 18 15 11 4 353 351 354 354 352 351 351 352 352 353 356 358 358 357 358 360 359 358 359 358 356 354 353 353 354 353 353 355 355 353 351 348 345 343 341 340 339 338 337 334 332 331
325 333 354 4 4 9 13 12 10 6 356 349 349 348 346 344 343 343 343 345 348 351 353 352 354 356 356 355 355 355 355 353 352 352 354 354 352 352 353 351 349 347 345 343 342 339 337 335 335 333 331 331
305 303 321 340 349 356 3 4 3 4 0 353 349 344 342 339 337 337 336 337 341 344 346 347 348 351 352 351 352 353 354 352 351 350 350 353 353 351 351 350 347 345 342 341 341 339 336 334 332 332 332 331
290 289 296 311 326 338 347 353 352 355 357 353 349 344 340 336 332 331 329 330 334 337 339 340 342 345 347 347 348 349 351 351 350 348 346 348 351 350 349 348 346 344 340 337 339 340 337 334 332 333 334 334
280 282 286 291 303 316 327 338 341 344 347 347 345 343 343 337 330 327 325 324 328 331 332 333 334 338 341 341 342 345 347 349 349 347 345 344 346 348 348 347 346 344 340 336 335 337 338 337 335 337 338 340
272 276 279 282 289 298 310 321 329 333 336 339 339 339 341 338 331 327 324 321 323 326 326 326 327 331 335 335 336 339 342 345 348 347 345 341 341 343 344 346 347 344 340 337 335 333 337 342 337 335 340 337
263 266 271 274 278 286 299 310 317 323 327 331 333 334 335 335 333 329 325 321 319 321 320 319 321 325 328 329 329 333 336 341 346 346 343 340 338 338 341 344 345 345 343 339 336 333 334 341 340 335 337 325
255 259 264 268 272 280 292 301 307 313 318 323 326 329 329 330 330 327 326 322 318 318 316 314 315 319 321 321 322 324 329 333 338 342 341 338 336 337 339 342 345 345 345 346 343 338 333 335 341 342 336 314
254 258 263 268 274 279 285 292 299 304 310 315 319 323 325 325 325 323 324 322 318 315 313 311 311 314 316 314 315 316 318 323 327 334 339 338 335 335 337 338 343 346 350 355 344 332 328 331 338 344 342 316
253 259 264 269 275 278 280 286 292 295 299 303 308 315 318 320 320 318 319 322 319 313 309 310 310 312 312 309 309 309 310 314 318 324 332 336 333 331 332 333 337 344 351 353 343 329 315 332 335 338 356 336
254 260 264 267 272 275 275 279 284 286 288 292 299 305 310 314 315 314 315 320 322 315 308 306 307 311 311 307 305 303 303 305 310 316 321 328 330 327 328 329 331 334 341 350 353 342 306 317 313 319 0 336
254 257 258 260 265 267 268 271 274 276 280 286 292 298 305 309 310 312 313 316 320 318 309 303 303 307 310 310 305 299 298 299 302 307 311 317 322 323 321 321 323 324 330 341 346 338 317 320 293 314 339 329
251 252 252 254 256 258 260 263 266 270 277 284 289 294 300 303 306 308 309 311 316 317 312 305 302 303 307 311 308 301 295 293 295 298 302 306 309 314 315 309 311 314 320 330 327 304 323 303 272 301 326 326
249 249 249 250 253 256 257 259 266 272 277 283 287 291 294 297 300 301 303 306 310 314 312 306 302 301 304 308 311 309 298 290 292 294 294 296 298 303 306 300 300 305 314 323 317 303 311 306 289 294 305 290
Height
855 854 853 852 851 849 848 848 846 845 844 843 842 840 839 837 836 834 832 831 829 828 826 825 823 821 820 819 817 815 813 812 810 809 807 806 805 804 802 801 799 798 798 796 794 794 792 791 790 789 788 786
855 854 853 852 851 850 849 848 847 846 845 844 842 841 839 838 836 834 833 831 830 828 827 825 823 822 820 819 817 815 813 812 810 809 807 806 805 804 803 802 800 799 798 796 794 794 793 792 791 789 788 787
856 855 854 852 851 850 849 849 848 847 846 844 843 841 840 838 836 834 833 831 830 828 827 825 824 822 821 820 818 816 814 812 811 809 808 806 805 804 803 802 800 799 798 796 795 794 793 792 791 790 788 787
856 855 854 853 852 851 850 849 848 847 846 844 843 842 840 838 837 835 833 831 830 828 827 825 824 823 821 820 818 817 815 813 812 810 808 806 805 804 803 801 800 799 798 796 795 793 793 792 791 789 788 787
857 856 855 853 852 851 850 850 849 848 846 844 843 842 840 838 837 835 833 832 830 829 827 826 824 823 821 820 819 817 816 814 812 810 809 807 805 804 802 801 800 798 797 796 795 793 792 791 790 789 788 786
857 856 855 854 853 852 851 850 849 848 846 844 843 841 839 838 837 836 834 833 831 830 828 827 825 823 821 820 818 817 816 814 812 810 809 807 806 804 803 801 799 798 796 795 794 793 792 791 790 788 787 786
858 857 856 854 853 852 851 850 849 847 846 844 842 840 839 838 837 836 835 834 833 831 830 828 826 824 822 820 818 816 815 814 812 811 809 807 806 805 803 801 799 798 796 795 794 793 792 790 790 788 787 786
858 857 856 854 853 852 851 850 848 847 845 844 842 841 840 839 838 837 836 835 833 831 829 828 826 824 822 820 818 816 814 813 811 811 809 808 806 804 802 801 800 798 797 795 793 792 791 790 790 789 787 785
858 857 855 854 853 852 851 850 848 847 846 845 844 843 842 841 839 838 836 835 833 831 829 827 825 823 822 820 818 816 814 812 811 810 808 807 806 804 803 802 800 799 797 795 794 793 791 789 789 788 787 785
858 856 855 854 853 853 851 851 849 848 847 846 846 844 843 842 840 839 837 835 833 831 829 827 825 823 822 821 819 817 815 814 812 810 808 807 806 805 804 803 801 800 798 796 795 793 791 789 788 787 786 784
858 856 856 855 854 853 852 851 850 849 849 848 847 846 844 843 841 839 837 836 834 832 830 828 827 825 823 822 820 818 817 815 814 812 810 808 807 806 805 803 802 800 799 797 796 793 791 789 788 786 785 783
858 857 856 855 855 854 853 852 851 850 849 849 848 846 845 844 842 840 838 837 835 833 832 830 829 827 825 823 822 820 818 817 815 813 811 809 807 806 804 803 802 801 799 797 796 794 792 790 788 786 784 782
858 857 856 855 855 854 853 852 851 851 850 849 848 847 845 844 842 840 839 837 836 835 833 832 830 828 827 825 823 821 820 818 816 814 813 811 809 807 805 803 802 800 799 798 796 794 792 790 787 785 783 781
858 857 856 855 854 854 853 852 852 851 850 849 848 847 845 844 843 841 840 838 837 836 834 833 831 829 828 826 824 822 821 820 818 816 814 812 810 808 806 804 802 800 799 798 796 794 792 790 787 785 783 781
857 856 855 855 854 853 853 852 852 851 850 849 848 847 846 844 843 842 840 839 837 836 835 833 832 830 829 827 825 824 822 821 819 818 816 814 811 809 807 805 803 801 798 797 796 794 792 789 787 785 783 781
856 856 855 854 854 853 852 852 851 851 850 849 848 847 846 844 843 842 841 839 838 837 835 834 832 831 829 827 826 824 823 821 820 818 816 814 812 810 808 806 804 801 799 796 795 793 791 789 787 785 782 780
856 855 854 854 853 852 852 851 851 850 849 848 848 846 845 844 843 842 841 840 839 837 836 834 833 831 829 828 827 825 823 822 820 818 816 813 811 810 807 805 803 801 799 797 794 792 791 789 787 784 782 780
855 854 854 853 852 852 851 850 850 849 849 848 847 846 845 844 843 842 841 840 839 838 836 835 833 832 830 829 827 826 824 822 820 818 816 813 811 809 807 804 802 800 798 796 794 792 790 788 786 784 782 779
854 853 853 852 851 851 850 850 849 849 848 847 846 846 845 844 843 842 841 840 839 838 836 835 834 832 831 829 828 826 824 822 820 818 817 814 811 809 807 804 802 800 798 796 794 792 789 787 785 783 781 779
852 852 851 851 850 850 849 849 848 848 847 846 845 845 844 843 842 841 840 839 838 837 836 835 833 832 831 829 828 826 825 823 821 819 817 815 813 810 807 805 802 800 798 796 794 792 789 787 785 783 781 779
851 850 850 849 849 848 848 847 847 847 846 845 845 844 843 842 841 840 839 838 837 836 835 834 833 832 830 829 828 826 825 823 821 819 817 815 814 811 808 806 803 800 798 795 793 792 789 787 784 782 780 779
849 849 848 848 848 847 846 846 845 845 844 844 843 843 842 841 840 839 838 837 836 835 834 833 832 831 830 828 827 826 824 823 821 820 817 815 814 812 810 807 804 801 798 795 792 790 789 787 784 782 780 778
847 847 847 846 846 845 845 844 844 843 843 842 842 841 840 840 839 838 837 836 835 834 833 832 831 830 829 827 826 825 824 822 821 819 817 815 813 812 810 808 806 802 799 796 792 790 788 786 784 782 780 779
845 845 844 844 844 843 843 842 842 841 841 841 840 839 839 838 837 836 836 835 834 833 832 831 830 829 828 827 825 824 823 821 820 818 817 815 813 811 809 808 806 803 799 795 792 789 787 785 784 781 780 779
843 842 842 842 841 841 841 840 840 839 839 839 838 837 837 836 836 835 834 833 833 832 830 830 829 828 827 825 824 823 822 821 820 819 817 815 814 811 809 807 806 803 799 795 792 787 784 782 782 781 779 778
840 840 840 839 839 839 838 838 838 837 837 836 836 836 835 835 834 833 833 832 831 830 829 828 827 826 825 824 823 822 821 820 819 818 817 815 813 812 810 808 806 805 801 798 796 792 786 781 779 778 778 777
837 837 837 837 837 837 836 836 835 835 834 834 834 834 833 833 832 832 831 831 830 829 828 827 826 825 824 823 822 821 820 819 818 817 816 815 813 811 810 808 807 806 804 802 799 796 792 787 782 779 777 776
835 835 835 835 835 835 834 833 833 832 832 832 831 831 831 831 830 830 829 829 828 827 827 826 825 824 823 822 821 820 818 818 817 816 815 814 813 811 809 808 807 806 806 804 802 799 796 793 790 784 780 778
832 833 833 833 833 832 832 831 830 830 829 829 829 829 829 829 828 828 827 827 826 825 825 824 823 822 821 820 820 819 817 816 816 815 814 813 812 811 810 808 807 806 806 805 804 803 801 798 795 790 787 784
830 830 830 830 830 829 829 828 827 826 826 826 827 826 826 826 826 826 825 825 824 824 823 822 821 820 819 819 818 817 816 815 814 814 813 812 811 810 809 808 807 805 805 805 804 803 803 802 800 795 793 791
827 827 827 826 826 825 825 824 822 822 823 823 824 823 823 823 823 823 823 822 822 822 821 820 819 818 818 817 816 815 815 814 813 812 812 811 810 809 808 807 806 805 804 804 803 803 802 801 800 798 796 794